Location: Hopville
(44.8032°N, 123.1329°W)
Time: 04:23:00
(UTC+00:00)

Cosmos 2026 Rocket - Pass Details

Date: 24 January 2021
Orbit: 940 x 1000 km, 82.9° (Epoch: 26 February)

Event Time Altitude Azimuth Distance (km) Brightness Sun altitude
Rises 14:32:53 0° 348° (NNW) 3,714 6.8 -11.9°
Reaches altitude 10° 14:35:27 10° 344° (NNW) 2,768 6.1 -11.5°
Maximum altitude 14:41:39 56° 268° (W) 1,173 4.1 -10.4°
Drops below altitude 10° 14:47:49 10° 192° (SSW) 2,762 6.5 -9.4°
Sets 14:50:23 0° 188° (S) 3,707 7.2 -8.9°
